{"data":{"norad_id":53798,"epoch":"2026-05-25T03:26:17.532672Z","epoch_age_seconds":72884,"freshness":"FRESH","line1":"1 53798U 22111AB  26145.14325848  .00001314  00000+0  10065-3 0  9995","line2":"2 53798  53.2126 290.5085 0001392  93.3542 266.7609 15.08836070205228","mean_motion":15.0883607,"eccentricity":0.0001392,"inclination_deg":53.2126,"raan_deg":290.5085,"arg_perigee_deg":93.3542,"mean_anomaly_deg":266.7609,"bstar":0.00010065,"rev_number":20522,"period_min":95.437803259833,"perigee_km":538.79243080568,"apogee_km":540.71837205024,"semimajor_km":6917.892401428,"source":"CELESTRAK","updated_at":"2026-05-25T13:38:17.545402Z"}}